マクノート彗星

508P/McNaught (2005)

English version
Home page
Updated on August 27, 2025

---------------------------------------------------------------------

・ プロフィール

符号 508P/2005 J1
発見日 2005年5月3日
発見光度 17.6等
発見者 R. H. McNaught (Siding Spring)

・ 軌道要素

                    Epoch = 2005 Apr. 20.0 TT
     T = 2005 Apr. 17.30504 TT        Peri. = 338.92192
     e = 0.5709662                    Node  = 268.84109 2000.0
     q = 1.5301375 AU                 Incl. =  31.76549
       a =  3.5664733 AU   n = 0.14633412   P =   6.74 years

・ 星図

・ 光度変化

        m1 = 15.7 + 5 logΔ + 15.0 log r

---------------------------------------------------------------------

軌道要素は、CBET 5592に掲載されたものです。
星図は StellaNavigator Ver.2.0 for Windows (アストロアーツ 編著 / アスキー出版局刊) で作成したものです。
光度グラフはComet for Windowsで作成したものです。

---------------------------------------------------------------------

Copyright(C) Seiichi Yoshida (comet@aerith.net). All rights reserved.